Date,TemperatureHighF,TemperatureAvgF,TemperatureLowF,DewpointHighF,DewpointAvgF,DewpointLowF,HumidityHigh,HumidityAvg,HumidityLow,PressureMaxIn,PressureMinIn,WindSpeedMaxMPH,WindSpeedAvgMPH,GustSpeedMaxMPH,PrecipitationSumIn
2013-1-1,36,31,21,27,22,10,78,68,60,30.11,29.97,6,1,6,0.00
2013-1-2,27,23,9,16,14,4,79,69,59,30.28,30.11,5,1,5,0.00
2013-1-3,25,19,9,15,10,0,76,67,61,30.31,30.18,5,1,5,0.00
2013-1-4,35,29,20,25,21,14,81,72,65,30.18,30.04,10,2,10,0.00
2013-1-5,39,33,24,27,23,16,76,65,55,30.42,30.33,7,1,7,0.00
2013-1-6,39,34,28,30,26,22,81,74,68,30.23,30.12,6,1,6,0.00
2013-1-7,36,31,23,28,21,16,85,68,55,30.54,30.33,7,1,7,0.00
2013-1-8,42,32,23,31,25,17,82,75,64,30.54,30.46,8,2,8,0.00
2013-1-9,41,34,24,34,28,20,85,80,70,30.53,30.25,8,1,8,0.00
2013-1-10,42,38,31,26,24,22,71,58,49,30.68,30.56,7,2,7,0.00
2013-1-11,36,34,28,34,29,21,89,80,73,30.66,30.33,2,0,2,0.00
2013-1-12,46,41,36,44,38,33,94,91,88,30.34,30.28,2,0,2,0.00
2013-1-13,46,41,37,43,39,35,95,93,91,30.32,30.18,7,1,7,0.00
2013-1-14,53,45,35,50,39,26,97,81,67,30.42,30.15,6,1,6,0.00
2013-1-15,36,34,31,28,26,25,78,74,68,30.49,30.36,4,0,4,0.00
2013-1-16,34,32,29,31,28,25,92,88,75,30.37,29.96,3,1,3,0.00
2013-1-17,40,34,28,33,28,19,91,80,69,30.24,30.02,5,1,5,0.00
2013-1-18,24,21,17,9,7,3,67,56,45,30.57,30.42,8,1,8,0.00
2013-1-19,40,36,26,29,26,18,76,68,63,30.37,30.10,13,4,13,0.00
2013-1-20,47,38,28,33,24,13,79,60,37,30.10,29.79,13,4,13,0.00
2013-1-21,27,23,20,19,16,10,81,73,62,30.21,29.96,5,0,5,0.00
2013-1-22,21,16,11,8,1,-4,74,51,42,30.20,30.03,7,2,7,0.00
2013-1-23,17,11,4,1,-2,-4,69,57,45,30.28,30.00,7,1,7,0.00
2013-1-24,24,11,3,2,-3,-6,68,55,40,30.25,29.78,10,2,10,0.00
2013-1-25,22,17,9,8,4,0,68,56,44,30.01,29.73,6,1,6,0.00
2013-1-26,21,20,15,10,6,2,71,57,48,29.91,29.74,7,2,7,0.00
2013-1-27,29,25,19,9,4,0,64,40,31,30.13,30.07,6,1,6,0.00
2013-1-28,32,28,22,28,21,10,86,76,57,30.06,29.66,5,1,5,0.00
2013-1-29,36,34,32,32,31,29,90,88,86,29.83,29.76,2,0,2,0.00
2013-1-30,50,48,41,49,46,40,96,96,95,29.59,29.22,10,3,10,0.00
2013-1-31,45,38,29,41,27,18,86,64,50,29.32,28.85,12,3,12,0.00
2013-2-1,29,24,19,16,12,6,69,59,45,29.80,29.42,7,2,7,0.00
2013-2-2,29,22,14,15,10,6,76,63,48,29.90,29.71,12,3,12,0.00
2013-2-3,30,26,17,20,17,12,82,69,61,29.62,29.43,5,1,5,0.00
2013-2-4,28,24,19,16,12,7,82,60,46,29.60,29.46,8,1,8,0.00
2013-2-5,29,27,22,21,20,16,82,75,71,29.65,29.56,3,1,3,0.00
2013-2-6,36,31,24,27,20,5,86,65,44,29.95,29.64,8,1,8,0.00
2013-2-7,32,26,17,14,11,5,65,52,44,30.15,30.06,4,1,4,0.00
2013-2-8,29,27,23,27,24,18,94,88,75,29.88,29.27,12,4,12,0.00
2013-2-9,25,20,15,20,15,8,91,81,50,29.87,29.44,11,3,11,0.00
2013-2-10,32,27,18,30,24,14,91,87,84,30.09,29.99,4,1,4,0.00
2013-2-11,39,36,32,38,35,31,98,95,91,29.69,29.33,8,2,8,0.00
2013-2-12,42,37,33,33,29,25,94,74,59,29.60,29.41,6,1,6,0.00
2013-2-13,40,35,28,28,26,21,84,70,58,29.59,29.37,7,1,7,0.00
2013-2-14,41,32,26,29,25,22,88,75,57,29.65,29.38,5,1,5,0.00
2013-2-15,47,36,26,37,29,21,87,77,61,29.67,29.58,11,2,11,0.00
2013-2-16,37,33,29,27,22,18,87,66,52,29.62,29.49,4,1,4,0.00
2013-2-17,26,20,13,8,4,1,61,49,38,29.49,29.23,10,3,10,0.00
2013-2-18,30,19,11,9,5,1,64,54,37,29.83,29.49,10,2,10,0.00
2013-2-19,42,36,22,35,29,12,90,76,65,29.74,29.32,10,2,10,0.00
2013-2-20,31,27,21,20,14,9,75,57,46,29.50,29.40,9,2,9,0.00
2013-2-21,30,23,18,15,13,10,76,64,52,29.92,29.55,9,2,9,0.00
2013-2-22,39,32,19,26,22,12,80,68,54,30.03,29.90,8,1,8,0.00
2013-2-23,37,33,31,34,29,25,93,86,77,29.93,29.58,4,1,4,0.00
2013-2-24,42,37,31,37,32,26,94,83,74,29.56,29.39,7,1,7,0.00
2013-2-25,45,38,30,31,27,23,78,66,55,29.89,29.74,4,1,4,0.00
2013-2-26,43,34,26,32,26,22,85,74,59,29.96,29.74,5,1,5,0.00
2013-2-27,41,39,37,40,38,36,96,95,94,29.38,29.21,8,3,8,0.00
2013-2-28,48,40,34,42,36,32,94,84,69,29.29,29.21,5,0,5,0.00
2013-3-1,41,37,34,32,29,28,87,74,61,29.40,29.29,5,1,5,0.00
2013-3-2,39,34,30,28,26,24,80,70,62,29.40,29.33,6,1,6,0.00
2013-3-3,34,30,26,25,22,18,79,72,61,29.35,29.29,8,2,8,0.00
2013-3-4,37,32,27,24,22,20,76,65,57,29.47,29.36,8,2,8,0.00
2013-3-5,43,39,30,28,27,23,77,61,52,29.69,29.62,8,1,8,0.00
2013-3-6,39,36,34,35,31,28,89,81,70,29.65,29.59,10,4,10,0.00
2013-3-7,37,34,30,31,29,26,89,82,73,29.70,29.64,10,2,10,0.00
2013-3-8,38,34,28,33,29,26,91,81,72,29.82,29.61,7,1,7,0.00
2013-3-9,52,43,30,30,26,20,70,51,38,29.97,29.86,5,1,5,0.00
2013-3-10,50,39,27,35,29,20,80,68,55,30.03,29.94,6,1,6,0.00
2013-3-11,51,44,34,42,38,31,89,79,69,29.91,29.80,8,2,8,0.00
2013-3-12,55,47,44,53,45,42,95,94,92,29.78,29.57,8,2,8,0.00
2013-3-13,47,41,33,32,28,26,83,60,49,29.85,29.77,5,1,5,0.00
2013-3-14,37,29,25,26,16,13,82,60,48,29.86,29.80,8,2,8,0.00
2013-3-15,27,24,23,16,12,12,64,60,56,29.89,29.86,5,2,5,0.00
2013-3-21,39,36,30,18,16,13,51,45,39,29.72,29.60,5,1,5,0.00
2013-3-22,39,33,24,24,21,14,68,60,50,29.80,29.70,7,2,7,0.00
2013-3-23,42,37,30,27,21,17,74,52,40,29.87,29.73,8,2,8,0.00
2013-3-24,43,40,35,26,24,21,60,52,47,29.88,29.71,8,1,8,0.00
2013-3-25,44,39,32,28,26,24,71,60,51,29.65,29.46,6,2,6,0.00
2013-3-26,47,42,33,31,26,20,72,53,40,29.82,29.69,9,2,9,0.00
2013-3-27,51,45,34,28,25,20,68,47,36,29.91,29.82,7,2,7,0.00
2013-3-28,48,43,36,34,32,29,80,66,54,30.06,29.95,7,1,7,0.00
2013-3-29,53,43,34,32,29,26,74,59,42,30.09,30.02,7,1,7,0.00
2013-3-30,55,49,38,33,26,22,76,43,32,30.12,30.04,8,2,8,0.00
2013-3-31,56,48,32,37,32,21,75,54,40,30.09,29.75,14,3,14,0.00
2013-4-1,59,45,31,46,34,18,86,68,53,29.85,29.59,12,2,12,0.00
2013-4-2,40,33,26,21,16,10,71,53,32,29.97,29.85,11,2,11,0.00
2013-4-3,43,35,26,19,15,12,62,45,31,30.22,30.01,8,2,8,0.00
2013-4-4,53,39,27,27,21,13,64,49,32,30.31,30.08,9,2,9,0.00
2013-4-5,59,48,36,31,24,18,69,41,23,29.94,29.71,10,2,10,0.00
2013-4-6,46,37,29,22,14,8,64,41,23,30.27,29.94,9,2,9,0.00
2013-4-7,56,51,43,38,35,28,76,55,45,30.22,30.00,15,5,15,0.00
2013-4-8,66,57,40,42,40,37,89,54,37,30.07,29.98,7,1,7,0.00
2013-4-9,72,66,49,54,46,40,85,50,38,30.00,29.89,10,2,10,0.00
2013-4-10,66,60,50,53,51,46,86,73,64,29.96,29.84,6,1,6,0.00
2013-4-11,54,50,45,47,43,32,91,77,56,30.06,29.90,5,1,5,0.00
2013-4-12,38,37,36,36,35,34,93,92,84,29.96,29.73,8,3,8,0.00
2013-4-13,54,47,36,42,38,33,91,73,54,29.93,29.81,6,1,7,0.00
2013-4-14,52,44,36,38,30,25,81,59,42,30.19,29.93,6,1,6,0.00
2013-4-15,60,45,34,40,31,25,73,60,44,30.35,30.18,7,1,7,0.00
2013-4-16,66,51,36,52,43,28,88,75,58,30.35,30.09,15,3,15,0.00
2013-4-17,64,54,46,50,39,31,91,59,33,30.28,30.09,6,1,6,0.00
2013-4-18,61,51,40,44,36,29,77,58,43,30.34,30.15,8,2,8,0.00
2013-4-19,70,62,54,63,59,52,94,87,77,29.98,29.68,14,5,14,0.00
2013-4-20,58,51,42,44,36,26,90,57,36,29.90,29.77,7,2,7,0.00
2013-4-21,52,44,31,27,22,18,63,42,31,30.42,29.97,7,2,7,0.00
2013-4-22,52,46,35,32,29,26,79,54,38,30.36,29.97,7,3,7,0.00
2013-4-23,38,37,36,32,31,30,79,79,78,30.14,29.67,2,2,2,0.00
2013-4-24,57,55,53,50,48,46,78,77,76,29.91,29.89,6,3,6,0.00
2013-4-25,64,52,41,36,31,27,67,46,31,30.28,30.08,8,1,8,0.00
2013-4-26,67,51,39,40,30,25,62,46,31,30.41,30.27,6,1,6,0.00
2013-4-27,67,52,38,38,32,27,66,47,24,30.42,30.28,7,1,7,0.00
2013-4-28,72,62,49,48,42,31,74,47,38,30.31,30.21,8,2,8,0.00
2013-4-29,59,55,47,48,43,38,79,65,54,30.25,30.21,7,1,7,0.00
2013-4-30,70,61,46,44,37,26,79,43,30,30.33,30.27,6,2,6,0.00
2013-5-1,72,60,44,46,39,29,73,46,30,30.49,30.40,6,2,6,0.00
2013-5-2,80,68,45,50,45,37,74,45,28,30.46,30.31,7,2,7,0.00
2013-5-3,68,61,49,42,39,34,63,46,33,30.46,30.34,5,2,5,0.00
2013-5-4,72,64,48,47,44,37,74,49,29,30.31,30.22,7,2,7,0.00
2013-5-5,60,50,38,44,39,34,86,68,48,30.29,30.26,4,2,4,0.00
2013-5-6,74,65,56,53,49,45,68,57,46,30.19,30.14,7,3,7,0.00
2013-5-7,79,68,56,59,54,50,83,62,40,30.18,30.11,7,1,7,0.00
2013-5-8,68,60,54,61,56,50,93,89,76,30.16,30.02,6,1,6,0.66
2013-5-9,65,61,53,61,58,52,95,88,83,29.98,29.89,4,0,4,0.69
2013-5-10,82,73,57,64,59,54,95,62,47,30.00,29.94,6,2,6,0.23
2013-5-11,64,62,59,61,59,57,94,92,90,29.83,29.71,8,2,8,0.25
2013-5-12,70,60,50,58,54,29,94,83,46,29.82,29.65,6,1,6,0.34
2013-5-13,58,50,39,38,33,30,77,53,40,30.05,29.94,6,1,6,0.23
2013-5-14,59,54,45,35,32,28,58,44,34,30.07,30.00,5,1,5,0.20
2013-5-15,63,58,46,53,49,41,81,70,58,30.01,29.69,9,3,9,0.22
2013-5-16,82,69,48,54,46,38,93,50,26,29.79,29.71,8,1,8,0.17
2013-5-17,70,62,52,46,42,37,59,47,38,30.20,30.05,6,1,6,0.22
2013-5-18,75,64,49,53,48,39,73,56,45,30.31,30.25,7,2,7,0.25
2013-5-19,58,56,53,54,52,49,92,88,86,30.33,30.21,4,1,4,0.23
2013-5-20,83,70,56,69,62,54,94,79,58,30.10,29.97,4,1,4,0.30
2013-5-21,91,83,66,74,70,64,94,67,53,29.97,29.84,6,2,6,0.08
2013-5-22,80,69,56,72,64,54,92,85,75,29.94,29.86,5,2,5,0.28
2013-5-23,71,66,64,69,64,62,96,93,90,29.92,29.77,6,2,6,2.49
2013-5-24,65,58,45,63,56,43,96,93,86,29.87,29.67,7,1,7,2.28
2013-5-25,48,45,42,46,42,40,95,92,88,29.88,29.82,7,2,7,0.33
2013-5-26,61,54,44,46,42,39,88,65,50,30.11,29.88,7,2,7,0.33
2013-5-27,73,67,55,49,45,42,64,47,34,30.19,30.10,6,1,6,0.28
2013-5-28,74,64,54,54,52,42,87,66,49,30.21,30.14,5,1,5,0.30
2013-5-29,83,74,57,71,66,55,93,78,67,30.10,30.01,4,2,4,0.33
2013-5-30,90,83,73,72,69,64,88,62,53,30.13,30.07,4,0,4,0.06
2013-5-31,94,85,68,74,68,62,89,59,40,30.13,30.01,6,1,6,0.09
2013-6-1,93,88,73,74,72,65,79,60,49,30.03,29.93,8,3,8,0.09
2013-6-2,90,82,70,76,72,65,84,71,60,29.88,29.77,10,3,10,0.01
2013-6-3,79,72,64,68,64,56,92,77,63,29.87,29.82,3,0,3,4.93
2013-6-4,73,64,50,53,47,42,74,55,41,30.06,29.94,7,1,7,0.00
2013-6-5,76,68,50,57,52,43,78,58,41,30.20,30.11,6,1,6,0.00
2013-6-6,73,64,51,62,55,47,87,72,60,30.16,30.06,6,1,6,0.00
2013-6-7,60,57,55,58,55,52,95,93,91,29.98,29.76,6,2,6,2.59
2013-6-8,77,72,61,66,63,57,90,74,66,30.00,29.78,6,1,6,0.00
2013-6-9,80,74,62,62,60,56,87,62,50,30.17,30.12,4,1,4,0.00
2013-6-10,72,65,60,64,60,56,92,84,73,30.16,29.97,5,1,5,0.00
2013-6-11,79,67,58,71,63,56,94,89,75,29.75,29.59,5,1,5,0.00
2013-6-12,72,67,58,58,55,52,78,65,56,29.86,29.74,7,1,7,0.00
2013-6-13,57,56,52,54,54,50,95,92,87,29.81,29.57,7,1,7,2.10
2013-6-14,72,65,56,62,58,52,89,77,64,29.83,29.73,4,1,4,1.55
2013-6-15,78,72,61,59,54,50,83,56,40,29.98,29.92,3,1,3,0.00
2013-6-16,81,75,68,64,62,59,77,64,54,29.86,29.76,6,2,6,0.00
2013-6-17,87,76,60,69,63,56,93,67,47,29.91,29.83,7,1,7,0.00
2013-6-18,85,73,59,72,64,56,92,76,61,29.92,29.84,5,1,5,0.00
2013-6-19,75,70,60,56,51,46,75,52,39,30.12,29.99,6,1,6,0.00
2013-6-20,80,74,58,62,58,50,74,58,47,30.25,30.21,4,1,4,0.00
2013-6-21,85,77,61,69,64,56,85,64,55,30.27,30.22,4,1,4,0.00
2013-6-22,81,68,58,65,60,54,87,76,58,30.25,30.22,4,1,4,0.00
2013-6-29,88,82,73,74,70,67,81,69,59,29.70,29.61,7,3,7,0.00
2013-6-30,88,80,71,78,73,67,93,80,71,29.92,29.70,6,2,6,0.00
2013-7-1,77,74,71,75,71,69,95,93,91,30.07,29.97,4,2,4,0.00
2013-7-2,85,78,72,78,74,70,97,87,76,30.18,30.11,5,2,5,0.00
2013-7-3,89,78,70,79,72,68,94,84,67,30.24,30.17,6,1,6,0.00
2013-7-4,92,85,73,79,75,70,89,73,63,30.25,30.15,5,2,5,0.00
2013-7-5,94,81,69,79,73,67,95,77,57,30.21,30.09,5,1,5,0.00
2013-7-6,92,87,78,77,75,72,88,67,58,30.13,30.04,3,1,3,0.00
2013-7-7,95,89,79,80,77,72,81,68,60,30.04,29.95,4,1,4,0.00
2013-7-14,90,85,76,77,75,71,85,72,64,30.31,30.23,4,0,4,0.00
2013-7-15,90,85,74,77,73,69,93,69,55,30.24,30.15,5,1,5,0.00
2013-7-16,92,86,77,72,70,67,72,58,49,30.18,30.15,4,1,4,0.00
2013-7-17,93,85,71,75,72,65,83,64,51,30.21,30.07,4,0,4,0.00
2013-7-18,94,90,80,77,76,73,79,64,55,30.06,29.98,5,0,5,0.00
2013-7-19,97,89,75,80,76,73,92,67,55,29.95,29.79,5,1,5,0.00
2013-7-20,92,86,74,79,73,66,77,67,57,29.83,29.72,4,1,4,0.00
2013-7-21,90,79,67,71,67,62,88,67,51,29.97,29.88,4,1,4,0.00
2013-7-22,86,78,66,75,70,62,90,79,69,29.98,29.86,4,1,4,0.00
2013-7-23,90,80,72,77,73,69,94,79,64,29.67,29.57,4,1,4,0.00
2013-7-24,81,76,64,71,65,56,88,71,63,29.89,29.69,5,1,5,6.62
2013-7-25,65,61,56,58,54,49,86,78,73,30.06,29.97,5,1,5,8.37
2013-7-26,76,68,61,69,64,59,94,85,69,30.02,29.97,5,1,5,0.00
2013-7-27,85,80,69,71,67,62,80,66,58,30.05,29.97,4,1,4,0.00
2013-7-28,82,77,68,72,68,64,88,76,70,29.98,29.93,3,1,3,0.00
2013-7-29,87,80,66,73,66,56,82,63,52,30.05,29.98,3,1,3,0.00
2013-7-30,79,74,63,62,60,56,79,61,50,30.12,30.07,5,1,5,0.00
2013-7-31,80,74,60,68,62,56,85,67,55,30.13,30.03,3,0,3,0.00
2013-8-1,78,69,65,70,65,62,92,87,72,29.97,29.86,4,1,4,0.00
2013-8-2,82,74,63,68,64,61,95,72,57,29.87,29.82,4,1,4,0.00
2013-8-3,79,71,63,67,64,59,89,80,64,29.87,29.81,3,0,3,0.00
2013-8-4,78,67,59,61,57,52,83,71,55,29.90,29.82,4,0,4,0.00
2013-8-5,74,68,57,53,51,48,83,57,43,30.02,29.90,4,1,5,0.00
2013-8-6,70,65,58,60,56,52,81,75,65,30.11,30.07,3,0,3,0.00
2013-8-7,78,71,59,67,63,56,92,77,64,30.14,30.06,4,1,4,0.00
2013-8-8,83,73,68,76,68,63,93,87,75,30.06,29.99,4,2,4,0.00
2013-8-9,80,74,71,76,72,69,96,93,87,29.93,29.77,6,2,6,0.00
2013-8-10,81,75,64,67,63,56,80,65,56,30.01,29.92,4,1,4,0.00
2013-8-11,79,72,59,61,59,54,84,65,50,30.08,30.00,3,1,3,0.00
2013-8-12,83,74,60,66,62,58,92,69,52,30.00,29.91,3,1,3,0.00
2013-8-13,75,72,68,70,67,64,94,86,79,29.81,29.67,3,1,3,0.00
2013-8-14,72,65,55,57,54,51,91,69,58,29.95,29.71,5,1,5,0.00
2013-8-15,75,70,60,58,56,52,77,60,49,30.08,30.02,4,1,4,0.00
2013-8-16,79,72,60,62,58,54,84,62,50,30.15,30.10,3,0,3,0.00
2013-8-17,82,72,59,63,60,54,85,66,50,30.24,30.20,4,0,4,0.00
2013-8-18,79,72,62,67,63,59,88,75,64,30.22,30.07,2,0,2,0.00
2013-8-19,78,75,68,67,65,63,84,72,60,30.03,29.90,5,0,5,0.00
2013-8-20,83,76,64,66,64,61,90,67,52,30.08,29.88,5,1,5,0.00
2013-8-21,86,77,64,69,65,60,89,68,52,30.12,29.71,4,0,4,0.00
2013-8-22,81,74,64,74,69,61,92,84,75,29.98,29.40,4,1,4,6.70
2013-8-23,79,75,68,64,62,57,85,63,51,29.93,29.55,5,1,5,5.48
2013-8-24,78,70,58,58,55,50,76,59,47,30.23,29.71,4,1,4,0.00
2013-8-25,81,73,62,60,57,53,73,57,45,30.20,29.60,4,0,4,0.00
2013-8-26,75,71,66,70,65,62,90,83,76,29.91,29.17,2,0,2,0.00
2013-8-27,82,74,67,72,69,64,95,85,71,29.51,29.05,5,1,5,0.00
2013-8-28,90,86,79,75,74,72,84,66,58,29.52,29.10,3,1,3,0.00
2013-8-29,76,72,68,68,67,64,94,84,75,29.55,29.06,5,1,5,0.00
2013-8-30,82,76,68,72,68,65,94,78,66,29.91,29.79,3,0,3,3.02
2013-8-31,82,78,73,77,73,70,91,87,81,29.77,29.73,4,1,4,0.00
2013-9-1,81,77,71,77,74,70,96,89,82,29.79,29.74,4,1,4,0.00
2013-9-2,80,75,69,76,72,66,96,90,85,29.74,29.61,2,0,2,0.00
2013-9-3,76,70,63,70,66,59,94,84,79,29.76,29.68,3,0,3,0.00
2013-9-4,77,70,57,62,60,56,96,73,55,29.87,29.83,3,1,3,0.00
2013-9-5,73,65,54,62,54,45,93,69,51,30.02,29.82,7,1,7,0.00
2013-9-6,69,61,49,50,47,43,80,60,45,30.13,30.03,5,1,5,0.00
2013-9-7,77,71,63,58,57,53,78,62,49,29.96,29.82,4,1,4,0.00
2013-9-8,76,66,56,64,56,47,89,70,51,29.95,29.71,7,1,7,0.00
2013-9-9,71,61,45,54,49,41,86,67,52,30.12,30.04,4,1,4,0.00
2013-9-10,78,71,64,73,68,62,94,91,84,30.07,29.93,5,1,5,0.00
2013-9-11,93,85,75,82,77,69,97,76,64,30.02,29.89,4,1,4,0.00
2013-9-12,87,78,69,79,72,66,95,84,73,29.83,29.61,6,2,6,0.00
2013-9-13,72,67,57,66,60,52,95,80,71,29.70,29.54,5,1,5,0.00
2013-9-14,64,58,51,53,50,46,87,74,65,29.96,29.81,6,1,6,0.00
2013-9-15,68,61,48,53,50,45,89,69,55,30.07,29.96,3,0,3,0.00
2013-9-16,67,60,54,57,54,47,92,79,65,30.07,29.93,5,1,5,0.00
2013-9-17,62,54,46,44,42,39,85,65,48,30.29,30.21,6,1,6,0.00
2013-9-18,71,55,45,53,46,41,90,75,49,30.21,30.06,3,0,3,0.00
2013-9-19,76,65,48,60,53,45,89,67,49,30.03,29.96,3,0,3,0.00
2013-9-20,78,70,54,64,57,51,91,67,49,29.98,29.90,4,1,4,0.00
2013-9-21,59,59,59,57,57,57,93,93,93,29.86,29.86,2,2,2,0.00
2013-9-22,66,59,50,56,49,43,78,70,61,29.75,29.63,6,1,6,0.00
2013-9-23,59,54,43,46,44,40,90,71,58,29.88,29.83,5,1,5,0.00
2013-9-24,65,57,42,46,44,39,90,63,46,29.88,29.74,6,1,6,0.00
2013-9-25,68,60,47,52,50,43,85,69,56,29.82,29.77,5,1,5,0.00
2013-9-26,68,61,54,55,52,49,87,73,61,29.98,29.89,3,1,3,0.00
2013-9-27,62,59,53,54,52,50,92,79,73,30.13,30.08,4,1,4,0.00
2013-9-28,72,62,49,58,53,46,93,75,56,30.20,30.13,4,1,4,0.00
2013-9-29,69,61,50,60,53,48,95,77,57,30.08,29.97,3,0,3,0.00
2013-9-30,71,63,53,56,53,49,89,69,55,29.95,29.85,4,0,4,0.00
2013-10-1,63,58,54,57,53,50,86,85,81,29.87,29.86,2,0,2,0.00
2013-10-3,74,66,54,58,53,48,82,65,49,29.92,29.85,5,0,5,0.00
2013-10-4,74,65,60,64,59,57,91,81,71,29.87,29.81,3,0,3,0.00
2013-10-5,76,68,59,67,62,56,93,83,73,29.91,29.85,3,0,3,0.00
2013-10-6,65,58,57,62,56,56,95,95,88,29.93,29.90,4,1,4,0.00
2013-10-7,72,67,62,70,66,61,98,97,92,29.79,29.66,8,3,8,0.00
2013-10-9,61,55,50,48,46,45,82,72,63,30.15,30.12,3,0,3,0.00
2013-10-10,60,55,49,54,50,45,89,82,78,30.07,29.95,5,2,5,0.00
2013-10-11,68,61,51,60,54,46,91,79,71,29.92,29.86,6,1,6,0.00
2013-10-12,69,62,55,56,54,50,87,75,65,30.11,29.99,6,2,6,0.00
2013-10-13,63,60,53,53,50,46,78,71,67,30.18,30.15,4,1,4,0.00
2013-10-14,65,56,43,54,48,41,94,77,62,30.16,30.03,3,0,3,0.00
2013-10-15,70,61,50,59,52,42,93,74,59,30.06,29.94,4,1,4,0.00
2013-10-16,62,58,50,54,51,43,86,79,74,29.97,29.73,2,0,2,0.00
2013-10-17,73,64,56,63,58,53,95,80,65,29.72,29.55,4,1,4,0.00
2013-10-18,58,51,47,44,42,40,78,71,59,29.73,29.65,1,0,1,0.00
2013-10-19,64,55,42,51,45,38,89,71,53,29.77,29.57,8,1,8,0.00
2013-10-20,58,52,43,44,40,36,90,63,49,29.81,29.64,7,1,7,0.00
2013-10-21,64,57,44,48,43,38,85,60,49,29.91,29.80,5,2,5,0.00
2013-10-22,65,55,45,55,48,40,93,79,65,29.66,29.53,5,1,5,0.00
2013-10-23,52,47,37,39,36,34,89,68,55,29.56,29.39,4,1,4,0.00
2013-10-24,51,43,33,36,32,28,89,65,48,29.69,29.57,8,1,8,0.00
2013-10-25,48,44,34,33,31,27,82,62,54,29.94,29.82,7,2,7,0.00
2013-10-26,52,46,31,40,34,28,90,64,51,29.94,29.68,10,3,11,0.00
2013-10-27,54,45,37,38,32,28,77,62,43,29.83,29.59,6,1,6,0.00
2013-10-28,57,46,32,41,34,27,85,65,46,30.09,29.89,6,1,6,0.00
2013-10-29,51,43,36,33,29,26,68,57,47,30.19,30.09,4,1,4,0.00
2013-10-30,49,43,38,40,35,31,78,73,68,30.06,29.97,2,0,2,0.00
2013-10-31,59,54,44,57,52,41,95,93,90,30.00,29.70,6,2,6,0.00
2013-11-1,63,60,53,61,56,48,96,86,76,29.44,29.31,16,3,16,0.00
2013-11-2,64,57,46,51,48,42,86,71,55,29.52,29.40,4,1,4,0.00
2013-11-3,45,41,34,36,31,25,86,69,56,30.04,29.72,7,1,7,0.00
2013-11-4,42,34,26,25,20,18,73,58,42,30.40,30.04,5,1,5,0.00
2013-11-5,51,45,30,40,35,23,75,69,65,30.40,30.29,4,1,4,0.00
2013-11-6,59,54,49,49,46,44,88,76,68,30.16,29.89,8,3,8,0.00
2013-11-7,59,49,39,56,46,35,91,88,85,29.89,29.51,8,1,8,0.00
2013-11-8,46,40,34,35,30,26,87,70,54,29.89,29.72,7,1,7,0.00
2013-11-9,45,39,28,35,31,24,86,73,63,29.99,29.83,5,1,5,0.00
2013-11-10,56,46,40,41,37,34,83,73,54,29.65,29.55,7,1,7,0.00
2013-11-11,50,45,38,36,33,30,75,63,57,29.91,29.71,7,2,7,0.00
2013-11-12,45,30,26,33,21,18,79,69,63,29.96,29.71,8,1,8,0.00
2013-11-13,34,29,24,19,17,14,72,59,46,30.06,29.96,9,1,9,0.00
2013-11-14,46,40,26,26,24,18,70,53,44,29.99,29.86,6,2,6,0.00
2013-11-15,55,48,37,32,28,24,61,47,38,29.98,29.89,5,2,5,0.00
2013-11-16,57,50,42,40,37,31,79,60,47,30.07,30.03,6,1,6,0.00
2013-11-17,56,53,43,55,51,32,95,92,65,30.05,29.75,2,0,2,0.00
2013-11-18,60,55,48,50,42,33,89,64,52,29.49,29.36,9,2,9,0.00
2013-11-19,42,37,30,28,24,20,69,61,51,30.02,29.64,10,2,10,0.00
2013-11-20,40,34,27,20,17,14,66,50,36,30.32,30.02,5,1,5,0.00
2013-11-21,46,42,36,33,30,22,73,62,54,30.34,30.16,6,1,6,0.00
2013-11-22,49,46,43,46,43,39,91,89,85,29.97,29.65,4,1,4,0.00
2013-11-23,42,36,29,28,25,16,75,62,51,29.75,29.60,8,2,8,0.00
2013-11-24,29,22,18,16,4,2,57,45,39,29.95,29.63,9,3,9,0.00
2013-11-25,31,25,17,17,13,9,70,61,52,30.12,30.01,6,2,6,0.00
2013-11-26,38,34,30,33,25,18,94,71,58,30.04,29.64,4,1,5,0.00
2013-11-27,57,43,34,56,41,29,97,93,82,29.64,29.06,8,2,8,0.00
2013-11-28,31,26,22,19,16,13,76,64,50,30.17,29.73,6,1,6,0.00
2013-11-29,33,28,24,22,19,15,81,68,58,30.39,30.23,5,1,5,0.00
2013-11-30,31,26,16,18,15,10,79,64,56,30.45,30.25,5,1,5,0.00
2013-12-1,46,41,35,39,34,30,84,79,74,29.97,29.76,2,0,2,0.00
2013-12-2,42,37,32,37,33,29,92,87,80,29.76,29.63,1,0,1,0.00
2013-12-3,49,42,32,40,35,28,93,78,64,29.71,29.60,3,0,3,0.00
2013-12-4,49,41,31,38,34,27,85,76,66,29.89,29.80,5,1,5,0.00
2013-12-5,52,49,44,51,48,42,95,94,91,29.85,29.70,6,1,6,0.00
2013-12-6,52,38,34,51,34,31,95,86,76,29.87,29.70,4,1,4,0.00
2013-12-7,35,32,27,32,27,20,90,81,75,30.15,29.85,5,1,5,0.00
2013-12-8,30,28,23,24,22,19,88,78,74,30.29,30.17,3,0,3,0.00
2013-12-9,34,32,26,32,30,22,93,92,77,30.18,29.46,5,1,5,0.00
2013-12-10,34,31,23,32,28,20,93,91,88,29.64,29.16,2,0,2,0.00
2013-12-11,29,26,19,22,20,16,87,78,73,29.91,29.28,4,1,4,0.00
2013-12-13,26,23,21,16,15,14,72,70,66,30.01,29.98,2,1,2,0.00
2013-12-15,34,30,23,31,26,18,94,88,80,28.71,28.06,9,1,9,0.00
2013-12-16,27,24,12,15,13,4,71,62,54,28.94,28.27,5,1,5,0.00
2013-12-17,18,16,14,14,12,9,87,84,79,28.86,27.73,5,2,5,0.00
2013-12-18,32,28,21,24,21,17,85,74,68,28.29,27.63,6,1,6,0.00
2013-12-19,41,34,23,29,26,18,82,71,61,28.20,27.56,9,3,9,0.00
2013-12-20,48,43,38,37,34,32,79,70,63,28.09,27.53,7,2,7,0.00
2013-12-21,53,48,39,45,42,35,90,80,73,27.94,27.53,4,2,4,0.00
2013-12-22,64,60,56,62,58,53,97,91,87,27.81,27.46,8,4,8,0.00
2013-12-23,56,54,53,53,52,50,95,93,90,27.70,27.56,2,0,2,0.00
2014-1-2,17,14,10,12,10,6,85,84,82,30.33,29.72,8,3,8,0.00